Home > Weather > Uroševac > Past weeks

Flag for Kosovo Weather for the Past 2 Weeks in Uroševac, Kosovo

Now
55 °F

Overcast.


Feels Like: 55 °F
Forecast: 48 / 52 °F
Wind: 3 mph from East

Location: Skopje-Petrovec

Current Time: May 2, 2016 at 3:42:41 AM

Latest Report: May 2, 2016 at 3:00 AM


Visibility: N/A

Pressure: 29.92 "Hg (27.91 "Hg at 582m altitude)

Humidity: 88%

Dew Point: 52 °F

Location of UroševacLocation

Historic Weather in Uroševac — Graph

°F

Uroševac Temperature Yesterday

Maximum temperature yesterday: 72 °F (at 1:30 PM)
Minimum temperature yesterday: 45 °F (at 5:30 AM)
Average temperature yesterday: 59 °F

High & Low Weather Summary for the Past Weeks

 TemperatureHumidityPressure
High86 °F (Apr 19, 2:30 PM)100% (Apr 21, 5:30 AM)30.39 "Hg (Apr 21, 5:30 AM)
Low32 °F (Apr 21, 5:30 AM)10% (Apr 21, 4:30 PM)29.45 "Hg (Apr 24, 4:00 PM)
Average57 °F65%29.95 "Hg
* Reported Apr 17 2:00 AM — May 2 2:00 AM, Uroševac, Weather by CustomWeather, © 2016

Note: Actual official high and low records may vary slightly from our data, if they occured in-between our weather recording intervals... More about our weather records

Advertising

Uroševac Weather History for the Previous 24 Hours

Scroll right to see more
 ConditionsComfort  
Time TempWeatherWind HumidityBarometerVisibility
2:00 AM
Mon, May 2
55 °FOvercast.5 mph88%29.92 "HgN/A
1:00 AM55 °FLight rain. Mostly cloudy.6 mph94%29.95 "HgN/A
12:30 AM55 °FRain. Mostly cloudy.5 mph94%29.95 "HgN/A
12:00 AM55 °FRain. Mostly cloudy.3 mph94%29.95 "HgN/A
11:30 PM
Sun, May 1
55 °FRain. Mostly cloudy.2 mph94%29.95 "Hg5 mi
11:00 PM55 °FRain. Mostly cloudy.2 mph94%29.95 "Hg4 mi
10:30 PM55 °FLight rain. Mostly cloudy.1 mph94%29.98 "HgN/A
10:00 PM55 °FLight rain. Mostly cloudy.2 mph94%29.95 "HgN/A
9:30 PM57 °FRain. Mostly cloudy.2 mph94%29.98 "HgN/A
9:00 PM57 °FRain. Mostly cloudy.2 mph94%29.95 "HgN/A
8:30 PM57 °FLight rain. More clouds than sun.2 mph88%29.95 "HgN/A
8:00 PM59 °FLight rain. Overcast.2 mph82%29.95 "HgN/A
7:30 PM59 °FLight rain. Overcast.1 mph77%29.95 "HgN/A
7:00 PM61 °FRain. Overcast.1 mph72%29.95 "HgN/A
6:30 PM63 °FOvercast.1 mph73%29.92 "HgN/A
6:00 PM64 °FLight rain. Overcast.2 mph68%29.92 "HgN/A
5:30 PM66 °FPartly sunny.10 mph56%29.89 "HgN/A
5:00 PM66 °FPartly sunny.9 mph56%29.89 "HgN/A
4:30 PM68 °FPartly sunny.12 mph53%29.92 "HgN/A
4:00 PM68 °FPartly sunny.13 mph53%29.92 "HgN/A
3:30 PM70 °FPartly sunny.16 mph50%29.92 "HgN/A
3:00 PM70 °FPartly sunny.13 mph46%29.95 "HgN/A
2:30 PM70 °FPartly sunny.12 mph46%29.95 "HgN/A
2:00 PM72 °FPartly sunny.13 mph44%29.95 "HgN/A
1:30 PM72 °FPartly sunny.13 mph41%29.95 "HgN/A
1:00 PM70 °FPartly sunny.13 mph46%29.95 "HgN/A
12:30 PM70 °FScattered clouds.10 mph46%29.98 "HgN/A
12:00 PM70 °FScattered clouds.8 mph43%29.98 "HgN/A
11:30 AM68 °FScattered clouds.8 mph49%29.98 "HgN/A
11:00 AM64 °FScattered clouds.2 mph64%30.01 "HgN/A
10:30 AM66 °FScattered clouds.3 mph60%30.01 "HgN/A
10:00 AM64 °FPassing clouds.2 mph64%30.04 "HgN/A
8:30 AM57 °FScattered clouds.1 mph77%30.04 "HgN/A
8:00 AM54 °FScattered clouds.No wind82%30.04 "HgN/A
7:30 AM52 °FScattered clouds.No wind88%30.04 "HgN/A
6:30 AM45 °FScattered clouds.No wind100%30.04 "Hg5 mi
6:00 AM45 °FPassing clouds.No wind100%30.04 "Hg4 mi
5:30 AM45 °FPassing clouds.No wind100%30.04 "Hg4 mi
4:30 AM46 °FPassing clouds.No wind93%30.04 "HgN/A
3:30 AM50 °FPassing clouds.2 mph88%30.04 "HgN/A
3:00 AM50 °FPassing clouds.2 mph88%30.04 "HgN/A
Weather by CustomWeather, © 2016

See weather overviewHow to use our weather pages